North Platte, NE

4:27 AM CDT on July 25, 2017 (GMT -0500)
North Platte Regional-Bird

Weather History for KLBF - April, 2013

Change the Weather History Date:

Sunday, April 7, 2013

  Actual Average Record
Temperature  
Mean Temperature 52 °F 45 °F  
Max Temperature 67 °F 59 °F 88 °F (1988)
Min Temperature 36 °F 30 °F 8 °F (2007)
Degree Days  
Heating Degree Days 13 20  
Month to date heating degree days 121 149  
Since 1 July heating degree days 5954 6014  
Cooling Degree Days 0 0  
Month to date cooling degree days 0 0  
Year to date cooling degree days 0 0  
Growing Degree Days 2 (Base 50)    
Moisture  
Dew Point 41 °F    
Average Humidity 69    
Maximum Humidity 93    
Minimum Humidity 44    
Precipitation  
Precipitation 0.20 in 0.06 in 1.58 in (1875)
Month to date precipitation 0.20 0.38  
Year to date precipitation 1.97 2.27  
Snow  
Snow 0.00 in 0.20 in 6.20 in (1897)
Month to date snowfall 0.0 1.1  
Since 1 July snowfall 22.6 26.4  
Snow Depth 0.00 in    
Sea Level Pressure  
Sea Level Pressure 29.72 in    
Wind  
Wind Speed 6 mph (SE)    
Max Wind Speed 28 mph    
Max Gust Speed 37 mph    
Visibility 10 miles    
Events Rain    
T = Trace of Precipitation, MM = Missing Value Source: NWS Daily Summary

Daily Weather History Graph

Daily Weather History Graph

Search for Another Location

Airport or City:

Trip Planner

Search our weather history database for the weather conditions in past years. The results will help you decide how hot, cold, wet, or windy it might be!

Date:

Astronomy

Apr. 07, 2013 Rise Set
Actual Time 7:15 AM CDT 8:14 PM CDT
Civil Twilight 6:47 AM CDT 8:42 PM CDT
Nautical Twilight 6:14 AM CDT 9:16 PM CDT
Astronomical Twilight 5:39 AM CDT 9:51 PM CDT
Moon 5:35 AM CDT (4/7) 5:47 PM CDT (4/7)
Length of Visible Light 13h 55m
Length of Day
12h 58m
Waning Crescent, 8% of the Moon is Illuminated
Apr 7
Waning Crescent
Apr 10
New
Apr 18
First Quarter
Apr 25
Full
May 2
Last Quarter

Hourly Weather History & Observations

Time (CDT) Temp. Windchill Dew Point Humidity Pressure Visibility Wind Dir Wind Speed Gust Speed Precip Events Conditions
12:53 AM 46.0 °F - 34.0 °F 63% 29.81 in 10.0 mi Calm Calm - N/A   Mostly Cloudy
1:53 AM 44.1 °F - 35.1 °F 71% 29.79 in 10.0 mi Calm Calm - N/A   Mostly Cloudy
2:53 AM 43.0 °F 40.3 °F 32.0 °F 65% 29.77 in 10.0 mi ESE 4.6 mph - N/A   Mostly Cloudy
3:53 AM 44.1 °F 42.5 °F 33.1 °F 65% 29.75 in 10.0 mi East 3.5 mph - N/A   Overcast
4:53 AM 41.0 °F 39.0 °F 32.0 °F 70% 29.75 in 10.0 mi NNW 3.5 mph - N/A   Mostly Cloudy
5:53 AM 41.0 °F - 32.0 °F 70% 29.74 in 10.0 mi Calm Calm - N/A   Overcast
6:53 AM 39.0 °F - 30.9 °F 73% 29.75 in 10.0 mi Calm Calm - N/A   Mostly Cloudy
7:53 AM 39.9 °F - 32.0 °F 73% 29.76 in 10.0 mi Calm Calm - N/A   Clear
8:53 AM 46.9 °F - 35.1 °F 63% 29.80 in 10.0 mi WSW 4.6 mph - N/A   Overcast
9:53 AM 50.0 °F - 44.1 °F 80% 29.82 in 9.0 mi SW 8.1 mph - 0.05 in Rain Light Rain
10:53 AM 50.0 °F - 46.0 °F 86% 29.80 in 10.0 mi Calm Calm - 0.03 in Rain Light Rain
11:53 AM 48.9 °F - 46.9 °F 93% 29.80 in 4.0 mi SE 8.1 mph - 0.08 in Rain Light Rain
12:53 PM 53.1 °F - 48.0 °F 83% 29.75 in 10.0 mi SSE 8.1 mph - 0.04 in   Overcast
1:53 PM 57.9 °F - 46.9 °F 67% 29.72 in 10.0 mi South 12.7 mph - N/A   Partly Cloudy
2:53 PM 62.1 °F - 46.9 °F 58% 29.68 in 10.0 mi South 10.4 mph - N/A   Clear
3:53 PM 64.9 °F - 43.0 °F 45% 29.65 in 10.0 mi SSW 5.8 mph - N/A   Partly Cloudy
4:53 PM 66.0 °F - 44.1 °F 45% 29.62 in 10.0 mi Variable 6.9 mph - N/A   Partly Cloudy
5:53 PM 64.9 °F - 48.0 °F 54% 29.62 in 10.0 mi ESE 12.7 mph - N/A   Clear
6:53 PM 62.1 °F - 48.0 °F 60% 29.61 in 10.0 mi ESE 15.0 mph - N/A   Clear
7:53 PM 57.0 °F - 48.0 °F 72% 29.61 in 10.0 mi ESE 4.6 mph - N/A   Clear
8:53 PM 48.9 °F - 44.1 °F 83% 29.62 in 10.0 mi ESE 6.9 mph - N/A   Clear
9:53 PM 48.0 °F - 44.1 °F 86% 29.63 in 10.0 mi Calm Calm - N/A   Clear
10:53 PM 46.0 °F 43.9 °F 42.1 °F 86% 29.64 in 10.0 mi ESE 4.6 mph - N/A   Clear
11:53 PM 50.0 °F - 43.0 °F 77% 29.65 in 10.0 mi South 9.2 mph - N/A   Clear